Location: Juiz de Fora
(21.7500°S, 43.3330°W)
Time: 08:49:06
(UTC-03:00)

Hubble Space Telescope - Pass Details

Date: 28 June 2024
Orbit: 510 x 513 km, 28.5° (Epoch: 17 July)

Event Time Altitude Azimuth Distance (km) Brightness Sun altitude
Rises 17:54:11 0° 249° (WSW) 2,621 5.1 -7.8°
Reaches altitude 10° 17:56:35 10° 239° (WSW) 1,735 3.9 -8.3°
Maximum altitude 18:00:13 33° 174° (S) 887 1.6 -9.1°
Enters shadow 18:03:17 13° 113° (ESE) 1,538 2.4 -9.8°
